Vertical_Velocity
3 -0 -14 8 -0 -2 -1 -2 -2 -6 18 1 -4 -8 -6 3 -7 -5 -6 -3 1 -4 0 0 3 -3 1 -2 -1 5 3 2 -1 2 1 1 1 1 -2 1 0 2 0 1
-4 -16 8 5 4 10 3 3 -11 -7 10 4 3 -8 -9 1 -2 -2 -1 3 1 2 1 -6 3 3 2 -0 -3 1 2 0 1 1 1 0 -1 -1 -1 0 2 2 1 1
-1 -5 -2 3 2 1 1 -1 -2 1 11 2 -3 -14 -17 -8 -2 -3 -1 -2 1 -0 2 -2 -2 2 -0 -0 -0 0 1 2 1 1 -1 -2 0 -2 2 -0 2 2 0 1
-0 1 -8 8 -5 11 0 8 3 0 11 -4 4 -13 -15 -12 -6 -1 -5 -0 1 3 6 -4 0 1 2 3 -1 -1 -1 1 0 -2 -2 1 5 -1 3 -1 -1 0 -0 0
-6 -0 2 0 -8 11 -8 2 2 2 3 9 -7 10 -16 -1 -4 -7 2 -3 3 2 1 0 -0 1 4 2 1 2 0 -0 2 -1 2 -1 0 2 -0 -1 1 -0 1 1
-8 5 -3 1 -1 3 0 1 2 1 5 4 -6 4 -12 -3 -9 -1 1 -6 0 1 0 3 0 -1 2 2 1 -0 -2 1 1 1 4 2 1 0 3 2 3 1 1 0
7 -4 3 9 6 5 3 7 -2 1 3 -12 -6 16 -24 -2 4 4 -2 -3 -4 3 2 2 4 4 3 2 4 -0 0 2 3 3 4 4 2 -3 4 3 1 1 1 2
1 -9 5 -2 -6 8 2 4 -8 -3 -1 -3 7 -5 -28 3 -4 -3 -12 -4 1 4 5 3 1 1 -0 -1 1 1 -0 3 1 2 2 1 -0 -2 3 3 2 2 3 1
3 3 15 5 4 7 4 -4 -1 9 0 9 -6 -11 -15 -3 1 8 5 7 5 3 6 7 2 1 -4 -5 3 2 1 3 1 5 4 2 2 1 4 3 1 2 1 1
-0 -9 -5 3 5 7 5 5 4 3 -1 0 -5 -4 4 4 -9 19 22 24 17 10 13 13 9 8 0 -2 1 1 2 1 4 3 4 4 4 -1 0 4 2 2 2 0
11 9 -6 -0 1 -3 -4 -5 -2 8 6 -2 -0 -2 -1 16 10 4 1 7 -9 6 8 10 7 5 6 3 0 2 -0 0 1 3 1 3 5 4 2 4 3 0 2 5
7 2 -3 -7 14 13 11 0 8 18 -17 -6 -0 -6 2 15 7 9 5 6 -2 -5 -1 3 -1 0 1 2 4 7 6 2 2 2 -1 0 5 5 6 1 -2 2 5 3
1 4 -0 -23 -12 -6 40 24 29 16 22 -12 15 -12 9 5 12 7 1 1 -3 -0 -2 -1 1 1 -0 1 -0 2 3 5 3 3 3 4 6 5 4 2 0 -0 2 3
12 6 15 7 12 7 -4 0 -5 8 9 -5 8 -6 -10 -1 1 4 5 0 -0 -2 -0 0 3 4 3 4 5 1 1 0 1 2 1 2 2 3 4 7 9 9 8 7
3 -4 -6 -14 -1 10 14 2 -2 4 2 1 -1 2 -0 -3 -2 -3 -2 0 0 1 0 1 2 2 4 4 3 5 6 6 7 7 9 7 5 10 6 8 8 7 8 5
10 2 1 -21 11 -3 17 3 3 2 5 9 1 -3 -2 -0 2 3 -1 -1 -4 -0 4 -2 -4 -2 1 3 5 3 4 5 1 8 7 7 6 6 7 3 7 5 4 3
-4 -3 3 -21 3 4 11 -5 -5 -1 0 4 -3 -0 -5 3 1 -2 1 2 -2 -5 3 -1 -1 -2 -4 2 -0 -3 -1 1 2 -1 4 4 3 2 4 -4 6 1 5 4
7 2 4 -16 6 6 6 -0 -1 -3 -0 3 4 3 -1 -5 -5 -1 0 -0 0 -2 -2 -2 -2 -1 -2 -0 -1 2 0 -0 4 7 -1 4 3 5 7 5 -4 2 2 3
-2 4 -3 3 -2 2 4 -0 2 4 -1 -0 -1 1 -0 2 -2 -0 2 -0 -2 -3 -3 -2 -5 -4 6 1 -1 -2 2 2 1 0 4 1 3 1 5 10 7 8 9 7
-3 4 0 -2 2 0 4 -1 -2 2 -1 1 -1 -2 -4 -0 -0 -0 1 -1 0 -1 -2 -1 -2 8 -3 -3 -1 -0 -1 2 -2 2 5 5 2 8 -0 -0 3 2 4 3
-11 -8 -3 -2 2 0 1 -1 0 0 -3 1 -1 -1 -0 -1 -4 -6 -5 -2 -4 -3 -0 1 0 -3 1 -2 -2 -3 -1 5 0 -3 3 4 2 -1 5 7 -1 4 1 2
-2 -2 -2 0 4 -1 1 2 -1 -1 1 -1 1 -2 0 0 1 -0 -0 0 -0 -0 0 -0 -0 -0 2 2 -4 -3 -0 3 0 -3 -2 12 1 -2 1 -2 -2 2 -5 -6
-1 -1 -2 -0 0 -1 -1 -1 1 1 -0 1 1 2 -1 1 -0 0 -1 -1 -0 -3 -2 -2 -3 -0 -2 -2 -4 -1 -4 -5 -5 -4 -0 -1 -1 -4 -1 -3 0 -3 -1 9
0 0 -1 -1 1 -1 -1 -0 -2 -2 -0 -0 -1 -1 0 -2 -1 -1 -2 -2 -3 -1 -2 -2 -1 -1 1 -0 2 -1 -1 -1 1 1 1 3 -0 2 2 0 2 -1 4 3
1 -1 0 1 -1 -2 1 -1 -2 5 2 1 3 -1 -1 -2 2 -3 -0 -0 -0 -1 -0 -2 -3 -2 -0 -1 0 -1 -4 -4 -2 -3 -1 -1 -1 2 0 4 -1 -2 5 0
-0 -1 -1 -1 -1 1 2 2 -1 0 0 1 -2 3 3 -2 -0 -1 1 0 -2 -2 -2 -2 -0 -1 1 -0 -2 -2 -4 -4 -2 -1 -0 2 -1 0 -1 -2 0 4 4 2
Height
3079 3078 3075 3078 3079 3078 3079 3078 3076 3077 3077 3073 3070 3066 3066 3068 3066 3064 3064 3064 3063 3062 3063 3064 3066 3065 3066 3066 3067 3069 3069 3071 3072 3074 3075 3077 3079 3081 3082 3085 3086 3088 3090 3092
3074 3068 3075 3074 3075 3075 3074 3073 3070 3070 3071 3068 3065 3059 3059 3059 3057 3056 3055 3055 3054 3056 3056 3055 3057 3059 3059 3060 3061 3063 3064 3064 3066 3068 3070 3071 3073 3075 3077 3080 3082 3083 3085 3087
3067 3067 3068 3069 3069 3069 3068 3067 3066 3067 3067 3061 3059 3048 3050 3051 3050 3050 3050 3050 3048 3048 3049 3048 3051 3052 3053 3054 3055 3057 3058 3058 3060 3063 3063 3065 3067 3070 3073 3075 3076 3078 3080 3082
3061 3061 3061 3062 3061 3065 3061 3063 3063 3063 3063 3058 3056 3042 3041 3043 3042 3043 3042 3043 3043 3043 3043 3043 3045 3046 3048 3049 3050 3051 3051 3052 3054 3056 3058 3059 3063 3064 3067 3069 3070 3072 3074 3076
3056 3056 3057 3055 3055 3059 3056 3058 3058 3058 3057 3053 3051 3052 3030 3037 3036 3036 3036 3037 3036 3038 3038 3039 3040 3040 3042 3043 3044 3044 3045 3046 3048 3049 3052 3053 3056 3057 3060 3061 3063 3065 3068 3070
3050 3053 3051 3052 3052 3054 3051 3053 3053 3053 3052 3047 3042 3046 3020 3027 3029 3031 3032 3032 3032 3033 3034 3034 3034 3035 3037 3038 3038 3038 3039 3040 3041 3043 3045 3047 3048 3050 3053 3055 3057 3059 3061 3063
3046 3044 3045 3046 3047 3047 3048 3049 3051 3051 3050 3038 3035 3035 3020 3025 3027 3028 3028 3030 3030 3029 3029 3029 3030 3030 3031 3030 3031 3031 3031 3032 3034 3036 3038 3040 3041 3043 3046 3048 3049 3051 3053 3056
3041 3038 3039 3036 3038 3040 3038 3041 3042 3039 3038 3029 3029 3022 3019 3022 3024 3025 3024 3024 3025 3025 3025 3024 3024 3025 3025 3025 3025 3025 3025 3026 3027 3030 3032 3033 3034 3035 3038 3040 3041 3043 3045 3047
3037 3031 3032 3030 3031 3035 3032 3031 3035 3033 3030 3031 3021 3017 3019 3021 3018 3017 3018 3017 3018 3019 3021 3021 3020 3019 3019 3019 3019 3019 3018 3019 3021 3023 3024 3026 3026 3027 3030 3032 3032 3034 3035 3037
3030 3025 3026 3024 3026 3026 3027 3028 3029 3031 3030 3024 3013 3015 3018 3013 3010 3011 3012 3014 3013 3014 3015 3014 3013 3013 3012 3012 3012 3012 3011 3011 3013 3014 3016 3017 3018 3019 3020 3022 3023 3024 3025 3027
3025 3023 3015 3020 3015 3018 3022 3020 3020 3020 3016 3012 3015 3014 3012 3006 3002 3003 3004 3002 3001 3003 3004 3005 3004 3004 3005 3004 3005 3004 3003 3003 3004 3005 3005 3007 3009 3010 3010 3012 3014 3015 3016 3017
3019 3014 3007 3006 3011 3013 3012 3008 3010 3008 3003 3003 3002 3006 3003 3000 2996 2995 2995 2995 2994 2995 2995 2995 2995 2995 2997 2998 2998 2997 2996 2996 2996 2996 2996 2996 2997 2998 3000 3001 3001 3003 3004 3005
3011 3006 3003 2996 3002 3004 3001 3002 2999 2996 2997 2992 2996 2993 2994 2990 2986 2987 2989 2988 2987 2986 2985 2986 2986 2986 2987 2988 2989 2988 2987 2986 2986 2986 2986 2986 2987 2987 2987 2987 2987 2988 2989 2990
3005 3003 3000 2996 2997 2997 2994 2990 2990 2993 2991 2985 2987 2984 2983 2981 2978 2977 2977 2979 2978 2976 2975 2975 2975 2975 2975 2975 2975 2975 2974 2974 2974 2973 2973 2972 2972 2972 2973 2974 2974 2975 2975 2976
3002 2997 2996 2991 2990 2991 2988 2985 2982 2983 2982 2982 2980 2978 2974 2973 2973 2970 2969 2969 2968 2967 2965 2964 2963 2962 2961 2960 2960 2959 2959 2959 2959 2959 2958 2957 2957 2957 2958 2959 2959 2960 2961 2962
2997 2990 2988 2982 2985 2985 2979 2979 2978 2979 2979 2978 2975 2977 2975 2972 2969 2969 2967 2964 2961 2960 2957 2954 2953 2952 2951 2950 2948 2948 2947 2946 2945 2945 2945 2945 2945 2945 2945 2947 2947 2948 2949 2950
2989 2987 2987 2975 2979 2979 2975 2975 2977 2978 2977 2976 2973 2974 2972 2970 2966 2963 2961 2959 2956 2956 2953 2950 2948 2947 2944 2944 2942 2941 2941 2940 2939 2938 2936 2936 2937 2938 2938 2938 2939 2940 2941 2942
2984 2984 2984 2975 2972 2971 2981 2979 2979 2978 2977 2975 2975 2974 2972 2968 2965 2962 2958 2955 2953 2952 2949 2947 2945 2943 2941 2938 2936 2935 2934 2933 2932 2931 2930 2930 2929 2929 2929 2930 2932 2932 2933 2933
2983 2982 2979 2976 2974 2980 2981 2978 2978 2975 2975 2972 2971 2970 2969 2967 2963 2961 2957 2953 2950 2948 2946 2944 2941 2939 2936 2934 2933 2931 2929 2928 2926 2925 2922 2922 2922 2921 2922 2921 2921 2923 2924 2925
2982 2980 2979 2976 2974 2974 2979 2977 2975 2973 2971 2970 2968 2965 2963 2961 2960 2957 2953 2950 2948 2945 2942 2940 2938 2935 2932 2929 2928 2926 2925 2923 2921 2919 2917 2916 2915 2915 2915 2914 2915 2915 2915 2916
2981 2979 2978 2976 2976 2976 2976 2975 2973 2974 2977 2968 2965 2962 2959 2957 2954 2951 2948 2946 2944 2941 2939 2936 2933 2930 2927 2925 2923 2921 2919 2917 2915 2914 2912 2910 2908 2908 2907 2907 2906 2906 2906 2906
2983 2981 2979 2978 2976 2977 2975 2974 2976 2973 2968 2965 2962 2958 2956 2953 2951 2948 2945 2943 2939 2937 2934 2931 2928 2925 2921 2919 2918 2916 2913 2910 2908 2906 2905 2902 2899 2899 2898 2897 2897 2896 2897 2897
2983 2983 2981 2982 2978 2974 2972 2971 2969 2967 2964 2961 2958 2955 2951 2949 2947 2943 2940 2937 2934 2931 2928 2924 2921 2918 2915 2912 2909 2907 2905 2902 2899 2897 2895 2892 2892 2890 2889 2888 2888 2889 2889 2889
2979 2978 2978 2977 2975 2973 2970 2969 2966 2964 2962 2959 2955 2952 2948 2944 2940 2937 2934 2930 2927 2924 2920 2916 2913 2910 2907 2904 2901 2897 2894 2892 2889 2888 2886 2884 2882 2881 2880 2878 2878 2877 2878 2876
2979 2977 2975 2974 2973 2971 2969 2966 2963 2961 2957 2954 2951 2946 2942 2937 2934 2929 2926 2922 2918 2914 2910 2906 2901 2898 2896 2892 2889 2885 2882 2879 2876 2874 2874 2873 2871 2869 2867 2866 2866 2865 2865 2864
2977 2976 2975 2973 2971 2969 2968 2964 2960 2957 2953 2949 2944 2941 2936 2930 2924 2920 2915 2911 2906 2901 2896 2891 2888 2884 2881 2878 2875 2872 2869 2864 2861 2859 2858 2858 2856 2854 2853 2852 2852 2851 2850 2849